This is the latest recevied weather packets stored in our database for station/object KD2DXJ. If no packets are shown the sender has not sent any weather packets the latest 1 day(s).
| Time | Temp. | Humidity | Pressure | Rain* | Wind** | Luminosity | Snow |
|---|---|---|---|---|---|---|---|
| 1778087483 | 6.67° C | 97% | 1009.1 hPa | 0 mm | - | 157 W/m² | - |
| 1778085666 | 6.11° C | 97% | 1009.2 hPa | 0 mm | - | 157 W/m² | - |
| 1778080316 | 5.56° C | 98% | 1008.8 hPa | 0 mm | - | 92 W/m² | - |
| 1778080013 | 5.56° C | 99% | 1008.6 hPa | 0 mm | - | 103 W/m² | - |
| 1778079710 | 5.56° C | 99% | 1008.7 hPa | 0 mm | - | 112 W/m² | - |
| 1778078498 | 5.56° C | 99% | 1008.8 hPa | 1.27 mm | - | 103 W/m² | - |
| 1778077893 | 5.56° C | 99% | 1008.8 hPa | 0 mm | - | 93 W/m² | - |
| 1778076685 | 5.56° C | 99% | 1009 hPa | 0 mm | - | 68 W/m² | - |
| 1778076382 | 5.56° C | 99% | 1008.5 hPa | 1.27 mm | - | 60 W/m² | - |
| 1778075472 | 5.56° C | 99% | 1008.8 hPa | 1.27 mm | - | 72 W/m² | - |
| 1778074259 | 5.56° C | 99% | 1008.5 hPa | 0 mm | - | 51 W/m² | - |
| 1778073956 | 5.56° C | 99% | 1008.4 hPa | 1.27 mm | - | 50 W/m² | - |
| 1778071232 | 5.56° C | 99% | 1008.5 hPa | 1.27 mm | - | 45 W/m² | - |
| 1778070324 | 5.56° C | 99% | 1008.8 hPa | 1.78 mm | - | 30 W/m² | - |
| 1778069114 | 5.56° C | 99% | 1008.8 hPa | 0 mm | - | 33 W/m² | - |
| 1778068811 | 5.56° C | 99% | 1008.9 hPa | 1.27 mm | - | 34 W/m² | - |
| 1778068207 | 5.56° C | 99% | 1009.1 hPa | 0 mm | - | 27 W/m² | - |
| 1778067904 | 5.56° C | 99% | 1009.2 hPa | 1.78 mm | - | 26 W/m² | - |
| 1778066996 | 5.56° C | 99% | 1009.3 hPa | 0 mm | - | 19 W/m² | - |
| 1778066089 | 5.56° C | 99% | 1008.9 hPa | 1.27 mm | - | 18 W/m² | - |
| 1778064876 | 5.56° C | 99% | 1009.4 hPa | 1.27 mm | - | 10 W/m² | - |
| 1778062152 | 6.11° C | 99% | 1009.1 hPa | 1.78 mm | - | 2 W/m² | - |
| 1778061850 | 6.11° C | 99% | 1008.7 hPa | 3.05 mm | - | 2 W/m² | - |
| 1778061548 | 6.11° C | 99% | 1008.9 hPa | 2.29 mm | - | 1 W/m² | - |
| 1778060641 | 6.11° C | 99% | 1008.3 hPa | 3.05 mm | - | 0 W/m² | - |
* Rain latest hour (hover to see other rain measurements)
** Current wind speed in m/s (hover to see current wind gust speed)